When you browse on this site, cookies collect data to enhance your experience and personalize the content and advertising you see.
Visit our Privacy Policy to learn more. By continuing to use the site, you agree to this use of cookies and data.
  • In Latvia
  • List of Countries
  • For 7 days
  • Water Temperature
  • Satellite Maps
  • Weather Map
  • Weather Widgets
  • user-avatar
    Login

    Hourly Weather Nashavar

    Today, 25 March, Monday

    Time Temperature Precipitation Wind Pressure Humidity
    00:00 +19°C° 0 mm 2 mps 731 mmHg 30%
    01:00 +19°C° 0 mm 2 mps 731 mmHg 31%
    02:00 +18°C° 0 mm 2 mps 731 mmHg 31%
    03:00 +18°C° 0 mm 2 mps 731 mmHg 30%
    04:00 +18°C° 0 mm 3 mps 731 mmHg 30%
    05:00 +17°C° 0 mm 3 mps 730 mmHg 30%
    06:00 +18°C° 0 mm 3 mps 731 mmHg 29%
    07:00 +19°C° 0 mm 3 mps 731 mmHg 28%
    08:00 +20°C° 0 mm 3 mps 731 mmHg 27%
    09:00 +22°C° 0 mm 4 mps 731 mmHg 24%
    10:00 +25°C° 0 mm 4 mps 732 mmHg 20%
    11:00 +27°C° 0 mm 4 mps 731 mmHg 17%
    12:00 +28°C° 0 mm 4 mps 731 mmHg 17%
    13:00 +28°C° 0 mm 4 mps 731 mmHg 16%
    14:00 +29°C° 0 mm 4 mps 731 mmHg 15%
    15:00 +29°C° 0 mm 3 mps 731 mmHg 15%
    16:00 +29°C° 0 mm 3 mps 731 mmHg 16%
    17:00 +29°C° 0 mm 2 mps 730 mmHg 17%
    18:00 +27°C° 0 mm 2 mps 730 mmHg 19%
    19:00 +26°C° 0 mm 1 mps 730 mmHg 20%
    20:00 +24°C° 0 mm 1 mps 731 mmHg 22%
    21:00 +23°C° 0 mm 1 mps 731 mmHg 22%
    22:00 +23°C° 0 mm 1 mps 731 mmHg 22%
    23:00 +22°C° 0 mm 1 mps 731 mmHg 23%

    Tomorrow, 26 March, Tuesday

    Time Temperature Precipitation Wind Pressure Humidity
    00:00 +21°C° 0 mm 1 mps 731 mmHg 24%
    01:00 +21°C° 0 mm 1 mps 731 mmHg 25%
    02:00 +20°C° 0 mm 1 mps 731 mmHg 26%
    03:00 +19°C° 0 mm 1 mps 731 mmHg 27%
    04:00 +19°C° 0 mm 1 mps 730 mmHg 27%
    05:00 +18°C° 0 mm 1 mps 730 mmHg 27%
    06:00 +19°C° 0 mm 1 mps 731 mmHg 26%
    07:00 +21°C° 0 mm 1 mps 731 mmHg 24%
    08:00 +22°C° 0 mm 1 mps 732 mmHg 23%
    09:00 +24°C° 0 mm 1 mps 732 mmHg 20%
    10:00 +26°C° 0 mm 1 mps 732 mmHg 17%
    11:00 +28°C° 0 mm 1 mps 732 mmHg 14%
    12:00 +29°C° 0 mm 1 mps 732 mmHg 14%
    13:00 +30°C° 0 mm 1 mps 731 mmHg 13%
    14:00 +31°C° 0 mm 1 mps 731 mmHg 12%
    15:00 +31°C° 0 mm 1 mps 731 mmHg 13%
    16:00 +31°C° 0 mm 1 mps 731 mmHg 13%
    17:00 +31°C° 0 mm 1 mps 731 mmHg 14%
    18:00 +29°C° 0 mm 1 mps 731 mmHg 17%
    19:00 +27°C° 0 mm 1 mps 731 mmHg 20%
    20:00 +25°C° 0 mm 1 mps 731 mmHg 23%
    21:00 +24°C° 0 mm 1 mps 731 mmHg 25%
    22:00 +23°C° 0 mm 1 mps 732 mmHg 27%
    23:00 +21°C° 0 mm 0 mps 732 mmHg 28%

    Day after tomorrow, 27 March, Wednesday

    Time Temperature Precipitation Wind Pressure Humidity
    00:00 +20°C° 0 mm 0 mps 731 mmHg 29%
    01:00 +20°C° 0 mm 0 mps 731 mmHg 30%
    02:00 +19°C° 0 mm 0 mps 731 mmHg 31%
    03:00 +19°C° 0 mm 0 mps 731 mmHg 31%
    04:00 +21°C° 0 mm 1 mps 731 mmHg 31%
    05:00 +20°C° 0 mm 1 mps 731 mmHg 30%
    06:00 +22°C° 0 mm 1 mps 731 mmHg 29%
    07:00 +23°C° 0 mm 1 mps 732 mmHg 27%
    08:00 +24°C° 0 mm 1 mps 732 mmHg 25%
    09:00 +26°C° 0 mm 1 mps 732 mmHg 22%
    10:00 +28°C° 0 mm 1 mps 732 mmHg 19%
    11:00 +29°C° 0 mm 1 mps 732 mmHg 16%
    12:00 +30°C° 0 mm 1 mps 732 mmHg 15%
    13:00 +31°C° 0 mm 1 mps 732 mmHg 14%
    14:00 +32°C° 0 mm 1 mps 731 mmHg 13%
    15:00 +32°C° 0 mm 1 mps 731 mmHg 15%
    16:00 +32°C° 0 mm 1 mps 731 mmHg 17%
    17:00 +31°C° 0 mm 1 mps 731 mmHg 18%
    18:00 +30°C° 0 mm 1 mps 731 mmHg 21%
    19:00 +26°C° 0 mm 0 mps 731 mmHg 25%
    20:00 +24°C° 0 mm 0 mps 732 mmHg 28%
    21:00 +24°C° 0 mm 0 mps 732 mmHg 29%
    22:00 +23°C° 0 mm 0 mps 732 mmHg 30%
    23:00 +22°C° 0 mm 0 mps 732 mmHg 31%

    28 March, Thursday

    Time Temperature Precipitation Wind Pressure Humidity
    00:00 +22°C° 0 mm 0 mps 732 mmHg 32%
    01:00 +21°C° 0 mm 0 mps 731 mmHg 32%
    02:00 +21°C° 0 mm 0 mps 731 mmHg 33%
    03:00 +23°C° 0 mm 1 mps 731 mmHg 32%
    04:00 +23°C° 0 mm 1 mps 731 mmHg 31%
    05:00 +23°C° 0 mm 1 mps 730 mmHg 30%
    06:00 +24°C° 0 mm 1 mps 731 mmHg 29%
    07:00 +25°C° 0 mm 1 mps 731 mmHg 27%
    08:00 +26°C° 0 mm 2 mps 731 mmHg 26%
    09:00 +27°C° 0 mm 2 mps 731 mmHg 23%
    10:00 +29°C° 0 mm 2 mps 731 mmHg 21%
    11:00 +31°C° 0 mm 2 mps 731 mmHg 19%
    12:00 +32°C° 0 mm 2 mps 731 mmHg 18%
    13:00 +34°C° 0 mm 2 mps 730 mmHg 17%
    14:00 +35°C° 0 mm 2 mps 730 mmHg 16%
    15:00 +35°C° 0 mm 2 mps 729 mmHg 17%
    16:00 +34°C° 0 mm 1 mps 729 mmHg 18%
    17:00 +33°C° 0 mm 1 mps 729 mmHg 18%
    18:00 +32°C° 0 mm 1 mps 729 mmHg 21%
    19:00 +30°C° 0 mm 1 mps 729 mmHg 24%
    20:00 +28°C° 0 mm 1 mps 730 mmHg 28%
    21:00 +25°C° 0 mm 0 mps 730 mmHg 29%
    22:00 +24°C° 0 mm 0 mps 730 mmHg 31%
    23:00 +24°C° 0 mm 0 mps 730 mmHg 32%

    29 March, Friday

    Time Temperature Precipitation Wind Pressure Humidity
    00:00 +23°C° 0 mm 0 mps 730 mmHg 33%
    01:00 +25°C° 0 mm 1 mps 730 mmHg 33%
    02:00 +24°C° 0 mm 1 mps 729 mmHg 33%
    03:00 +24°C° 0 mm 1 mps 729 mmHg 34%
    04:00 +24°C° 0 mm 1 mps 729 mmHg 35%
    05:00 +23°C° 0 mm 1 mps 729 mmHg 36%
    06:00 +24°C° 0 mm 1 mps 729 mmHg 35%
    07:00 +25°C° 0 mm 1 mps 729 mmHg 35%
    08:00 +26°C° 0 mm 1 mps 730 mmHg 34%
    09:00 +26°C° 0 mm 2 mps 730 mmHg 32%
    10:00 +27°C° 0 mm 3 mps 730 mmHg 30%
    11:00 +28°C° 0 mm 3 mps 731 mmHg 29%
    12:00 +28°C° 0 mm 4 mps 731 mmHg 29%
    13:00 +29°C° 0 mm 5 mps 731 mmHg 29%
    14:00 +29°C° 0 mm 6 mps 730 mmHg 29%
    15:00 +28°C° 0 mm 5 mps 730 mmHg 32%
    16:00 +27°C° 0 mm 5 mps 730 mmHg 35%
    17:00 +25°C° 0 mm 5 mps 730 mmHg 39%
    18:00 +23°C° 0.4 mm 4 mps 730 mmHg 43%
    19:00 +22°C° 0.4 mm 4 mps 730 mmHg 46%
    20:00 +21°C° 0.4 mm 3 mps 730 mmHg 50%
    21:00 +21°C° 0.6 mm 3 mps 730 mmHg 52%
    22:00 +21°C° 0.6 mm 3 mps 730 mmHg 53%
    23:00 +20°C° 0.6 mm 3 mps 730 mmHg 55%

    30 March, Saturday

    Time Temperature Precipitation Wind Pressure Humidity
    00:00 +20°C° 0.2 mm 3 mps 730 mmHg 56%
    01:00 +20°C° 0.2 mm 2 mps 730 mmHg 56%
    02:00 +19°C° 0.2 mm 2 mps 730 mmHg 57%
    03:00 +19°C° 0 mm 2 mps 730 mmHg 57%
    04:00 +19°C° 0 mm 2 mps 730 mmHg 57%
    05:00 +19°C° 0 mm 2 mps 730 mmHg 56%
    06:00 +20°C° 0 mm 2 mps 730 mmHg 53%
    07:00 +20°C° 0 mm 3 mps 730 mmHg 50%
    08:00 +21°C° 0 mm 3 mps 731 mmHg 47%
    09:00 +23°C° 0 mm 4 mps 731 mmHg 43%
    10:00 +26°C° 0 mm 4 mps 731 mmHg 39%
    11:00 +27°C° 0 mm 4 mps 732 mmHg 34%
    12:00 +28°C° 0 mm 4 mps 731 mmHg 32%
    13:00 +29°C° 0 mm 4 mps 731 mmHg 30%
    14:00 +30°C° 0 mm 4 mps 730 mmHg 28%
    15:00 +30°C° 0 mm 4 mps 730 mmHg 27%
    16:00 +30°C° 0 mm 4 mps 730 mmHg 27%
    17:00 +29°C° 0 mm 4 mps 729 mmHg 27%
    18:00 +28°C° 0 mm 4 mps 730 mmHg 28%
    19:00 +27°C° 0 mm 4 mps 730 mmHg 29%
    20:00 +25°C° 0 mm 4 mps 731 mmHg 30%
    21:00 +25°C° 0 mm 4 mps 731 mmHg 29%
    22:00 +24°C° 0 mm 3 mps 731 mmHg 28%
    23:00 +24°C° 0 mm 3 mps 731 mmHg 27%
    Show more